Year,Month,Day,Hour,Minute,Value (Times are PST for temperature in C)
2016,08,14,00,00,17.70
2016,08,14,00,01,17.70
2016,08,14,00,02,17.60
2016,08,14,00,03,17.60
2016,08,14,00,04,17.60
2016,08,14,00,05,17.60
2016,08,14,00,06,17.60
2016,08,14,00,07,17.50
2016,08,14,00,08,17.50
2016,08,14,00,09,17.40
2016,08,14,00,10,17.40
2016,08,14,00,11,17.40
2016,08,14,00,12,17.40
2016,08,14,00,13,17.30
2016,08,14,00,14,17.30
2016,08,14,00,15,17.30
2016,08,14,00,16,17.30
2016,08,14,00,17,17.30
2016,08,14,00,18,17.30
2016,08,14,00,19,17.30
2016,08,14,00,20,17.30
2016,08,14,00,21,17.30
2016,08,14,00,22,17.30
2016,08,14,00,23,17.30
2016,08,14,00,24,17.30
2016,08,14,00,25,17.30
2016,08,14,00,26,17.30
2016,08,14,00,27,17.20
2016,08,14,00,28,17.20
2016,08,14,00,29,17.20
2016,08,14,00,30,17.20
2016,08,14,00,31,17.20
2016,08,14,00,32,17.20
2016,08,14,00,33,17.20
2016,08,14,00,34,17.20
2016,08,14,00,35,17.20
2016,08,14,00,36,17.10
2016,08,14,00,37,17.10
2016,08,14,00,38,17.10
2016,08,14,00,39,17.10
2016,08,14,00,40,17.10
2016,08,14,00,41,17.00
2016,08,14,00,42,17.00
2016,08,14,00,43,17.00
2016,08,14,00,44,17.00
2016,08,14,00,45,17.00
2016,08,14,00,46,16.90
2016,08,14,00,47,16.90
2016,08,14,00,48,16.90
2016,08,14,00,49,16.90
2016,08,14,00,50,16.90
2016,08,14,00,51,16.90
2016,08,14,00,52,16.90
2016,08,14,00,53,16.90
2016,08,14,00,54,16.80
2016,08,14,00,55,16.80
2016,08,14,00,56,16.80
2016,08,14,00,57,16.90
2016,08,14,00,58,16.80
2016,08,14,00,59,16.80
2016,08,14,01,00,16.80
2016,08,14,01,01,16.80
2016,08,14,01,02,16.80
2016,08,14,01,03,16.80
2016,08,14,01,04,16.80
2016,08,14,01,05,16.80
2016,08,14,01,06,16.80
2016,08,14,01,07,16.80
2016,08,14,01,08,16.80
2016,08,14,01,09,16.80
2016,08,14,01,10,16.80
2016,08,14,01,11,16.80
2016,08,14,01,12,16.80
2016,08,14,01,13,16.80
2016,08,14,01,14,16.80
2016,08,14,01,15,16.80
2016,08,14,01,16,16.80
2016,08,14,01,17,16.80
2016,08,14,01,18,16.80
2016,08,14,01,19,16.80
2016,08,14,01,20,16.80
2016,08,14,01,21,16.70
2016,08,14,01,22,16.70
2016,08,14,01,23,16.70
2016,08,14,01,24,16.70
2016,08,14,01,25,16.70
2016,08,14,01,26,16.60
2016,08,14,01,27,16.60
2016,08,14,01,28,16.60
2016,08,14,01,29,16.60
2016,08,14,01,30,16.60
2016,08,14,01,31,16.60
2016,08,14,01,32,16.60
2016,08,14,01,33,16.50
2016,08,14,01,34,16.60
2016,08,14,01,35,16.60
2016,08,14,01,36,16.50
2016,08,14,01,37,16.50
2016,08,14,01,38,16.50
2016,08,14,01,39,16.50
2016,08,14,01,40,16.50
2016,08,14,01,41,16.40
2016,08,14,01,42,16.40
2016,08,14,01,43,16.40
2016,08,14,01,44,16.40
2016,08,14,01,45,16.40
2016,08,14,01,46,16.40
2016,08,14,01,47,16.40
2016,08,14,01,48,16.40
2016,08,14,01,49,16.40
2016,08,14,01,50,16.40
2016,08,14,01,51,16.40
2016,08,14,01,52,16.40
2016,08,14,01,53,16.40
2016,08,14,01,54,16.30
2016,08,14,01,55,16.30
2016,08,14,01,56,16.30
2016,08,14,01,57,16.30
2016,08,14,01,58,16.30
2016,08,14,01,59,16.30
2016,08,14,02,00,16.30
2016,08,14,02,01,16.30
2016,08,14,02,02,16.30
2016,08,14,02,03,16.30
2016,08,14,02,04,16.30
2016,08,14,02,05,16.30
2016,08,14,02,06,16.30
2016,08,14,02,07,16.20
2016,08,14,02,08,16.20
2016,08,14,02,09,16.20
2016,08,14,02,10,16.20
2016,08,14,02,11,16.20
2016,08,14,02,12,16.20
2016,08,14,02,13,16.20
2016,08,14,02,14,16.20
2016,08,14,02,15,16.20
2016,08,14,02,16,16.20
2016,08,14,02,17,16.20
2016,08,14,02,18,16.20
2016,08,14,02,19,16.20
2016,08,14,02,20,16.20
2016,08,14,02,21,16.20
2016,08,14,02,22,16.20
2016,08,14,02,23,16.20
2016,08,14,02,24,16.20
2016,08,14,02,25,16.20
2016,08,14,02,26,16.20
2016,08,14,02,27,16.20
2016,08,14,02,28,16.20
2016,08,14,02,29,16.20
2016,08,14,02,30,16.20
2016,08,14,02,31,16.20
2016,08,14,02,32,16.20
2016,08,14,02,33,16.20
2016,08,14,02,34,16.20
2016,08,14,02,35,16.20
2016,08,14,02,36,16.20
2016,08,14,02,37,16.20
2016,08,14,02,38,16.10
2016,08,14,02,39,16.10
2016,08,14,02,40,16.10
2016,08,14,02,41,16.00
2016,08,14,02,42,16.00
2016,08,14,02,43,16.00
2016,08,14,02,44,16.00
2016,08,14,02,45,15.90
2016,08,14,02,46,15.90
2016,08,14,02,47,15.90
2016,08,14,02,48,15.90
2016,08,14,02,49,15.90
2016,08,14,02,50,15.90
2016,08,14,02,51,15.90
2016,08,14,02,52,15.90
2016,08,14,02,53,15.90
2016,08,14,02,54,15.80
2016,08,14,02,55,15.80
2016,08,14,02,56,15.80
2016,08,14,02,57,15.80
2016,08,14,02,58,15.80
2016,08,14,02,59,15.80
2016,08,14,03,00,15.80
2016,08,14,03,01,15.80
2016,08,14,03,02,15.80
2016,08,14,03,03,15.70
2016,08,14,03,04,15.70
2016,08,14,03,05,15.70
2016,08,14,03,06,15.70
2016,08,14,03,07,15.70
2016,08,14,03,08,15.70
2016,08,14,03,09,15.70
2016,08,14,03,10,15.70
2016,08,14,03,11,15.70
2016,08,14,03,12,15.70
2016,08,14,03,13,15.60
2016,08,14,03,14,15.60
2016,08,14,03,15,15.60
2016,08,14,03,16,15.60
2016,08,14,03,17,15.60
2016,08,14,03,18,15.50
2016,08,14,03,19,15.50
2016,08,14,03,20,15.50
2016,08,14,03,21,15.40
2016,08,14,03,22,15.40
2016,08,14,03,23,15.40
2016,08,14,03,24,15.40
2016,08,14,03,25,15.40
2016,08,14,03,26,15.40
2016,08,14,03,27,15.40
2016,08,14,03,28,15.40
2016,08,14,03,29,15.40
2016,08,14,03,30,15.40
2016,08,14,03,31,15.40
2016,08,14,03,32,15.40
2016,08,14,03,33,15.40
2016,08,14,03,34,15.40
2016,08,14,03,35,15.40
2016,08,14,03,36,15.40
2016,08,14,03,37,15.40
2016,08,14,03,38,15.40
2016,08,14,03,39,15.40
2016,08,14,03,40,15.40
2016,08,14,03,41,15.40
2016,08,14,03,42,15.40
2016,08,14,03,43,15.40
2016,08,14,03,44,15.40
2016,08,14,03,45,15.40
2016,08,14,03,46,15.40
2016,08,14,03,47,15.40
2016,08,14,03,48,15.40
2016,08,14,03,49,15.40
2016,08,14,03,50,15.40
2016,08,14,03,51,15.40
2016,08,14,03,52,15.40
2016,08,14,03,53,15.40
2016,08,14,03,54,15.40
2016,08,14,03,55,15.40
2016,08,14,03,56,15.40
2016,08,14,03,57,15.40
2016,08,14,03,58,15.40
2016,08,14,03,59,15.30
2016,08,14,04,00,15.30
2016,08,14,04,01,15.30
2016,08,14,04,02,15.30
2016,08,14,04,03,15.30
2016,08,14,04,04,15.30
2016,08,14,04,08,15.30
2016,08,14,04,09,15.30
2016,08,14,04,10,15.30
2016,08,14,04,11,15.30
2016,08,14,04,12,15.30
2016,08,14,04,13,15.30
2016,08,14,04,14,15.30
2016,08,14,04,15,15.30
2016,08,14,04,16,15.30
2016,08,14,04,17,15.30
2016,08,14,04,18,15.30
2016,08,14,04,19,15.30
2016,08,14,04,20,15.30
2016,08,14,04,21,15.30
2016,08,14,04,22,15.30
2016,08,14,04,23,15.30
2016,08,14,04,24,15.30
2016,08,14,04,25,15.30
2016,08,14,04,26,15.30
2016,08,14,04,27,15.30
2016,08,14,04,28,15.30
2016,08,14,04,29,15.30
2016,08,14,04,30,15.30
2016,08,14,04,31,15.30
2016,08,14,04,32,15.20
2016,08,14,04,33,15.20
2016,08,14,04,34,15.20
2016,08,14,04,35,15.20
2016,08,14,04,36,15.20
2016,08,14,04,37,15.20
2016,08,14,04,38,15.20
2016,08,14,04,39,15.20
2016,08,14,04,40,15.30
2016,08,14,04,41,15.30
2016,08,14,04,42,15.30
2016,08,14,04,43,15.40
2016,08,14,04,44,15.40
2016,08,14,04,45,15.50
2016,08,14,04,46,15.50
2016,08,14,04,47,15.60
2016,08,14,04,48,15.60
2016,08,14,04,49,15.60
2016,08,14,04,50,15.70
2016,08,14,04,51,15.70
2016,08,14,04,52,15.70
2016,08,14,04,53,15.70
2016,08,14,04,54,15.70
2016,08,14,04,55,15.70
2016,08,14,04,56,15.70
2016,08,14,04,57,15.70
2016,08,14,04,58,15.70
2016,08,14,04,59,15.60
2016,08,14,05,00,15.60
2016,08,14,05,01,15.60
2016,08,14,05,02,15.60
2016,08,14,05,03,15.60
2016,08,14,05,04,15.50
2016,08,14,05,05,15.50
2016,08,14,05,06,15.40
2016,08,14,05,07,15.40
2016,08,14,05,08,15.40
2016,08,14,05,09,15.40
2016,08,14,05,10,15.40
2016,08,14,05,11,15.40
2016,08,14,05,12,15.40
2016,08,14,05,13,15.40
2016,08,14,05,14,15.40
2016,08,14,05,15,15.40
2016,08,14,05,16,15.40
2016,08,14,05,17,15.40
2016,08,14,05,18,15.40
2016,08,14,05,19,15.40
2016,08,14,05,20,15.40
2016,08,14,05,21,15.40
2016,08,14,05,22,15.40
2016,08,14,05,23,15.40
2016,08,14,05,24,15.40
2016,08,14,05,25,15.40
2016,08,14,05,26,15.30
2016,08,14,05,27,15.30
2016,08,14,05,28,15.30
2016,08,14,05,29,15.30
2016,08,14,05,30,15.30
2016,08,14,05,31,15.30
2016,08,14,05,32,15.30
2016,08,14,05,33,15.30
2016,08,14,05,34,15.30
2016,08,14,05,35,15.30
2016,08,14,05,36,15.40
2016,08,14,05,37,15.40
2016,08,14,05,38,15.40
2016,08,14,05,39,15.40
2016,08,14,05,40,15.40
2016,08,14,05,41,15.40
2016,08,14,05,42,15.40
2016,08,14,05,43,15.40
2016,08,14,05,44,15.40
2016,08,14,05,45,15.40
2016,08,14,05,46,15.40
2016,08,14,05,47,15.40
2016,08,14,05,48,15.40
2016,08,14,05,49,15.40
2016,08,14,05,50,15.40
2016,08,14,05,51,15.40
2016,08,14,05,52,15.40
2016,08,14,05,53,15.40
2016,08,14,05,54,15.40
2016,08,14,05,55,15.40
2016,08,14,05,56,15.30
2016,08,14,05,57,15.30
2016,08,14,05,58,15.30
2016,08,14,05,59,15.30
2016,08,14,06,00,15.30
2016,08,14,06,01,15.30
2016,08,14,06,02,15.30
2016,08,14,06,03,15.30
2016,08,14,06,04,15.30
2016,08,14,06,05,15.30
2016,08,14,06,06,15.30
2016,08,14,06,07,15.20
2016,08,14,06,08,15.20
2016,08,14,06,09,15.20
2016,08,14,06,10,15.20
2016,08,14,06,11,15.20
2016,08,14,06,12,15.20
2016,08,14,06,13,15.20
2016,08,14,06,14,15.20
2016,08,14,06,15,15.10
2016,08,14,06,16,15.10
2016,08,14,06,17,15.10
2016,08,14,06,18,15.00
2016,08,14,06,19,15.00
2016,08,14,06,20,14.90
2016,08,14,06,21,14.80
2016,08,14,06,22,14.80
2016,08,14,06,23,14.80
2016,08,14,06,24,14.80
2016,08,14,06,25,14.70
2016,08,14,06,26,14.70
2016,08,14,06,27,14.70
2016,08,14,06,28,14.70
2016,08,14,06,29,14.70
2016,08,14,06,30,14.70
2016,08,14,06,31,14.60
2016,08,14,06,32,14.60
2016,08,14,06,33,14.60
2016,08,14,06,34,14.60
2016,08,14,06,35,14.50
2016,08,14,06,36,14.50
2016,08,14,06,37,14.40
2016,08,14,06,38,14.40
2016,08,14,06,39,14.40
2016,08,14,06,40,14.40
2016,08,14,06,41,14.40
2016,08,14,06,42,14.40
2016,08,14,06,43,14.30
2016,08,14,06,44,14.30
2016,08,14,06,45,14.30
2016,08,14,06,46,14.30
2016,08,14,06,47,14.30
2016,08,14,06,48,14.30
2016,08,14,06,49,14.30
2016,08,14,06,50,14.30
2016,08,14,06,51,14.30
2016,08,14,06,52,14.20
2016,08,14,06,53,14.20
2016,08,14,06,54,14.20
2016,08,14,06,55,14.20
2016,08,14,06,56,14.20
2016,08,14,06,57,14.20
2016,08,14,06,58,14.20
2016,08,14,06,59,14.20
2016,08,14,07,00,14.20
2016,08,14,07,01,14.20
2016,08,14,07,02,14.20
2016,08,14,07,03,14.20
2016,08,14,07,04,14.20
2016,08,14,07,05,14.20
2016,08,14,07,06,14.20
2016,08,14,07,07,14.30
2016,08,14,07,08,14.30
2016,08,14,07,09,14.30
2016,08,14,07,10,14.40
2016,08,14,07,11,14.40
2016,08,14,07,12,14.50
2016,08,14,07,13,14.50
2016,08,14,07,14,14.60
2016,08,14,07,15,14.60
2016,08,14,07,16,14.60
2016,08,14,07,17,14.70
2016,08,14,07,18,14.70
2016,08,14,07,19,14.70
2016,08,14,07,20,14.80
2016,08,14,07,21,14.80
2016,08,14,07,22,14.80
2016,08,14,07,23,14.90
2016,08,14,07,24,14.90
2016,08,14,07,25,15.00
2016,08,14,07,26,15.00
2016,08,14,07,27,15.10
2016,08,14,07,28,15.10
2016,08,14,07,29,15.20
2016,08,14,07,30,15.20
2016,08,14,07,31,15.20
2016,08,14,07,32,15.30
2016,08,14,07,33,15.30
2016,08,14,07,34,15.30
2016,08,14,07,35,15.40
2016,08,14,07,36,15.40
2016,08,14,07,37,15.50
2016,08,14,07,38,15.50
2016,08,14,07,39,15.60
2016,08,14,07,40,15.60
2016,08,14,07,41,15.70
2016,08,14,07,42,15.80
2016,08,14,07,43,15.80
2016,08,14,07,44,15.90
2016,08,14,07,45,15.90
2016,08,14,07,46,16.00
2016,08,14,07,47,16.10
2016,08,14,07,48,16.00
2016,08,14,07,49,16.10
2016,08,14,07,50,16.00
2016,08,14,07,51,16.00
2016,08,14,07,52,16.00
2016,08,14,07,53,16.00
2016,08,14,07,54,16.00
2016,08,14,07,55,16.00
2016,08,14,07,56,15.90
2016,08,14,07,57,15.90
2016,08,14,07,58,15.90
2016,08,14,07,59,15.80
2016,08,14,08,00,15.80
2016,08,14,08,01,15.80
2016,08,14,08,02,15.80
2016,08,14,08,03,15.80
2016,08,14,08,04,15.80
2016,08,14,08,05,15.80
2016,08,14,08,06,15.80
2016,08,14,08,07,15.80
2016,08,14,08,08,15.80
2016,08,14,08,09,15.90
2016,08,14,08,10,16.00
2016,08,14,08,11,16.00
2016,08,14,08,12,16.10
2016,08,14,08,13,16.10
2016,08,14,08,14,16.20
2016,08,14,08,15,16.20
2016,08,14,08,16,16.30
2016,08,14,08,17,16.30
2016,08,14,08,18,16.30
2016,08,14,08,19,16.30
2016,08,14,08,20,16.40
2016,08,14,08,21,16.40
2016,08,14,08,22,16.40
2016,08,14,08,23,16.30
2016,08,14,08,24,16.20
2016,08,14,08,25,16.10
2016,08,14,08,26,16.00
2016,08,14,08,27,15.90
2016,08,14,08,28,15.80
2016,08,14,08,29,15.80
2016,08,14,08,30,15.80
2016,08,14,08,31,15.70
2016,08,14,08,32,15.70
2016,08,14,08,33,15.60
2016,08,14,08,34,15.60
2016,08,14,08,35,15.60
2016,08,14,08,36,15.50
2016,08,14,08,37,15.40
2016,08,14,08,38,15.40
2016,08,14,08,39,15.40
2016,08,14,08,40,15.30
2016,08,14,08,41,15.40
2016,08,14,08,42,15.40
2016,08,14,08,43,15.40
2016,08,14,08,44,15.40
2016,08,14,08,45,15.40
2016,08,14,08,46,15.40
2016,08,14,08,47,15.50
2016,08,14,08,48,15.50
2016,08,14,08,49,15.50
2016,08,14,08,50,15.50
2016,08,14,08,51,15.50
2016,08,14,08,52,15.50
2016,08,14,08,53,15.40
2016,08,14,08,54,15.40
2016,08,14,08,55,15.30
2016,08,14,08,56,15.30
2016,08,14,08,57,15.30
2016,08,14,08,58,15.20
2016,08,14,08,59,15.30
2016,08,14,09,00,15.30
2016,08,14,09,01,15.30
2016,08,14,09,02,15.30
2016,08,14,09,03,15.30
2016,08,14,09,04,15.30
2016,08,14,09,05,15.30
2016,08,14,09,06,15.30
2016,08,14,09,07,15.30
2016,08,14,09,08,15.30
2016,08,14,09,09,15.30
2016,08,14,09,10,15.30
2016,08,14,09,11,15.30
2016,08,14,09,12,15.40
2016,08,14,09,13,15.40
2016,08,14,09,14,15.50
2016,08,14,09,15,15.50
2016,08,14,09,16,15.60
2016,08,14,09,17,15.60
2016,08,14,09,18,15.70
2016,08,14,09,19,15.70
2016,08,14,09,20,15.60
2016,08,14,09,21,15.70
2016,08,14,09,22,15.70
2016,08,14,09,23,15.70
2016,08,14,09,24,15.70
2016,08,14,09,25,15.80
2016,08,14,09,26,15.80
2016,08,14,09,27,15.80
2016,08,14,09,28,15.80
2016,08,14,09,29,15.90
2016,08,14,09,30,15.90
2016,08,14,09,31,15.90
2016,08,14,09,32,16.00
2016,08,14,09,33,16.10
2016,08,14,09,34,16.10
2016,08,14,09,35,16.10
2016,08,14,09,36,16.10
2016,08,14,09,37,16.10
2016,08,14,09,38,16.10
2016,08,14,09,39,16.20
2016,08,14,09,40,16.20
2016,08,14,09,41,16.20
2016,08,14,09,42,16.20
2016,08,14,09,43,16.30
2016,08,14,09,44,16.30
2016,08,14,09,45,16.40
2016,08,14,09,46,16.40
2016,08,14,09,47,16.50
2016,08,14,09,48,16.60
2016,08,14,09,49,16.70
2016,08,14,09,50,16.80
2016,08,14,09,51,17.00
2016,08,14,09,52,17.10
2016,08,14,09,53,17.20
2016,08,14,09,54,17.30
2016,08,14,09,55,17.40
2016,08,14,09,56,17.60
2016,08,14,09,57,17.70
2016,08,14,09,58,17.80
2016,08,14,09,59,17.90
2016,08,14,10,00,18.00
2016,08,14,10,01,18.10
2016,08,14,10,02,18.30
2016,08,14,10,03,18.40
2016,08,14,10,04,18.50
2016,08,14,10,05,18.60
2016,08,14,10,06,18.70
2016,08,14,10,07,18.70
2016,08,14,10,08,18.70
2016,08,14,10,09,18.70
2016,08,14,10,10,18.70
2016,08,14,10,11,18.70
2016,08,14,10,12,18.80
2016,08,14,10,13,18.90
2016,08,14,10,14,19.10
2016,08,14,10,15,19.20
2016,08,14,10,16,19.30
2016,08,14,10,17,19.40
2016,08,14,10,18,19.40
2016,08,14,10,19,19.40
2016,08,14,10,20,19.40
2016,08,14,10,21,19.50
2016,08,14,10,22,19.50
2016,08,14,10,23,19.60
2016,08,14,10,24,19.60
2016,08,14,10,25,19.70
2016,08,14,10,26,19.60
2016,08,14,10,27,19.50
2016,08,14,10,28,19.40
2016,08,14,10,29,19.30
2016,08,14,10,30,19.30
2016,08,14,10,31,19.20
2016,08,14,10,32,19.20
2016,08,14,10,33,19.20
2016,08,14,10,34,19.20
2016,08,14,10,35,19.20
2016,08,14,10,36,19.20
2016,08,14,10,37,19.20
2016,08,14,10,38,19.20
2016,08,14,10,39,19.20
2016,08,14,10,40,19.10
2016,08,14,10,41,19.00
2016,08,14,10,42,18.90
2016,08,14,10,43,18.90
2016,08,14,10,44,18.90
2016,08,14,10,45,18.90
2016,08,14,10,46,18.90
2016,08,14,10,47,18.80
2016,08,14,10,48,18.80
2016,08,14,10,49,18.80
2016,08,14,10,50,18.80
2016,08,14,10,51,18.90
2016,08,14,10,52,18.90
2016,08,14,10,53,19.00
2016,08,14,10,54,19.10
2016,08,14,10,55,19.00
2016,08,14,10,56,19.00
2016,08,14,10,57,18.90
2016,08,14,10,58,18.80
2016,08,14,10,59,18.80
2016,08,14,11,00,18.80
2016,08,14,11,01,18.80
2016,08,14,11,02,18.70
2016,08,14,11,03,18.70
2016,08,14,11,04,18.60
2016,08,14,11,05,18.70
2016,08,14,11,06,18.80
2016,08,14,11,07,19.00
2016,08,14,11,08,19.10
2016,08,14,11,09,19.30
2016,08,14,11,10,19.40
2016,08,14,11,11,19.50
2016,08,14,11,12,19.60
2016,08,14,11,13,19.70
2016,08,14,11,14,19.70
2016,08,14,11,15,19.80
2016,08,14,11,16,19.90
2016,08,14,11,17,19.90
2016,08,14,11,18,20.00
2016,08,14,11,19,19.90
2016,08,14,11,20,19.90
2016,08,14,11,21,19.90
2016,08,14,11,22,19.80
2016,08,14,11,23,19.80
2016,08,14,11,24,19.80
2016,08,14,11,25,19.70
2016,08,14,11,26,19.70
2016,08,14,11,27,19.70
2016,08,14,11,28,19.70
2016,08,14,11,29,19.70
2016,08,14,11,30,19.70
2016,08,14,11,31,19.70
2016,08,14,11,32,19.80
2016,08,14,11,33,19.80
2016,08,14,11,34,19.80
2016,08,14,11,35,19.80
2016,08,14,11,36,19.70
2016,08,14,11,37,19.60
2016,08,14,11,38,19.60
2016,08,14,11,39,19.50
2016,08,14,11,40,19.40
2016,08,14,11,41,19.40
2016,08,14,11,42,19.30
2016,08,14,11,43,19.30
2016,08,14,11,44,19.30
2016,08,14,11,45,19.20
2016,08,14,11,46,19.10
2016,08,14,11,47,19.00
2016,08,14,11,48,18.90
2016,08,14,11,49,18.80
2016,08,14,11,50,18.80
2016,08,14,11,51,18.70
2016,08,14,11,52,18.70
2016,08,14,11,53,18.70
2016,08,14,11,54,18.70
2016,08,14,11,55,18.70
2016,08,14,11,56,18.70
2016,08,14,11,57,18.70
2016,08,14,11,58,18.70
2016,08,14,11,59,18.80
2016,08,14,12,00,18.80
2016,08,14,12,01,18.80
2016,08,14,12,02,18.90
2016,08,14,12,03,18.90
2016,08,14,12,04,19.00
2016,08,14,12,05,19.00
2016,08,14,12,06,19.10
2016,08,14,12,07,19.10
2016,08,14,12,08,19.20
2016,08,14,12,09,19.20
2016,08,14,12,10,19.30
2016,08,14,12,11,19.40
2016,08,14,12,12,19.50
2016,08,14,12,13,19.50
2016,08,14,12,14,19.60
2016,08,14,12,15,19.60
2016,08,14,12,16,19.60
2016,08,14,12,17,19.60
2016,08,14,12,18,19.60
2016,08,14,12,19,19.70
2016,08,14,12,20,19.70
2016,08,14,12,21,19.70
2016,08,14,12,22,19.80
2016,08,14,12,23,19.80
2016,08,14,12,24,19.90
2016,08,14,12,25,20.00
2016,08,14,12,26,20.00
2016,08,14,12,27,20.10
2016,08,14,12,28,20.20
2016,08,14,12,29,20.30
2016,08,14,12,30,20.40
2016,08,14,12,31,20.40
2016,08,14,12,32,20.40
2016,08,14,12,33,20.50
2016,08,14,12,34,20.50
2016,08,14,12,35,20.60
2016,08,14,12,36,20.70
2016,08,14,12,37,20.70
2016,08,14,12,38,20.70
2016,08,14,12,39,20.80
2016,08,14,12,40,20.80
2016,08,14,12,41,20.90
2016,08,14,12,42,21.00
2016,08,14,12,43,21.00
2016,08,14,12,44,21.10
2016,08,14,12,45,21.10
2016,08,14,12,46,21.10
2016,08,14,12,47,21.10
2016,08,14,12,48,21.20
2016,08,14,12,49,21.20
2016,08,14,12,50,21.10
2016,08,14,12,51,21.00
2016,08,14,12,52,20.90
2016,08,14,12,53,20.90
2016,08,14,12,54,20.80
2016,08,14,12,55,20.80
2016,08,14,12,56,20.80
2016,08,14,12,57,20.80
2016,08,14,12,58,20.80
2016,08,14,12,59,20.70
2016,08,14,13,00,20.60
2016,08,14,13,01,20.60
2016,08,14,13,02,20.50
2016,08,14,13,03,20.40
2016,08,14,13,04,20.40
2016,08,14,13,05,20.30
2016,08,14,13,06,20.30
2016,08,14,13,07,20.20
2016,08,14,13,08,20.20
2016,08,14,13,09,20.10
2016,08,14,13,10,20.10
2016,08,14,13,11,20.00
2016,08,14,13,12,20.00
2016,08,14,13,13,20.00
2016,08,14,13,14,20.00
2016,08,14,13,15,20.10
2016,08,14,13,16,20.20
2016,08,14,13,17,20.20
2016,08,14,13,18,20.30
2016,08,14,13,19,20.30
2016,08,14,13,20,20.30
2016,08,14,13,21,20.30
2016,08,14,13,22,20.30
2016,08,14,13,23,20.30
2016,08,14,13,24,20.30
2016,08,14,13,25,20.40
2016,08,14,13,26,20.50
2016,08,14,13,27,20.50
2016,08,14,13,28,20.60
2016,08,14,13,29,20.70
2016,08,14,13,30,20.80
2016,08,14,13,31,20.90
2016,08,14,13,32,20.90
2016,08,14,13,33,20.90
2016,08,14,13,34,20.90
2016,08,14,13,35,21.00
2016,08,14,13,36,21.00
2016,08,14,13,37,21.10
2016,08,14,13,38,21.20
2016,08,14,13,39,21.20
2016,08,14,13,40,21.30
2016,08,14,13,41,21.40
2016,08,14,13,42,21.40
2016,08,14,13,43,21.40
2016,08,14,13,44,21.50
2016,08,14,13,45,21.60
2016,08,14,13,46,21.70
2016,08,14,13,47,21.70
2016,08,14,13,48,21.80
2016,08,14,13,49,21.80
2016,08,14,13,50,21.80
2016,08,14,13,51,21.80
2016,08,14,13,52,21.90
2016,08,14,13,53,21.90
2016,08,14,13,54,22.00
2016,08,14,13,55,22.00
2016,08,14,13,56,22.10
2016,08,14,13,57,22.20
2016,08,14,13,58,22.20
2016,08,14,13,59,22.20
2016,08,14,14,00,22.20
2016,08,14,14,01,22.10
2016,08,14,14,02,22.10
2016,08,14,14,03,22.10
2016,08,14,14,04,22.10
2016,08,14,14,05,22.20
2016,08,14,14,06,22.20
2016,08,14,14,07,22.20
2016,08,14,14,08,22.20
2016,08,14,14,09,22.20
2016,08,14,14,10,22.10
2016,08,14,14,11,22.10
2016,08,14,14,12,22.10
2016,08,14,14,13,22.10
2016,08,14,14,14,22.20
2016,08,14,14,15,22.20
2016,08,14,14,16,22.30
2016,08,14,14,17,22.30
2016,08,14,14,18,22.40
2016,08,14,14,19,22.50
2016,08,14,14,20,22.60
2016,08,14,14,21,22.70
2016,08,14,14,22,22.70
2016,08,14,14,23,22.80
2016,08,14,14,24,22.80
2016,08,14,14,25,22.80
2016,08,14,14,26,22.80
2016,08,14,14,27,22.70
2016,08,14,14,28,22.80
2016,08,14,14,29,22.80
2016,08,14,14,30,22.80
2016,08,14,14,31,22.80
2016,08,14,14,32,22.80
2016,08,14,14,33,22.70
2016,08,14,14,34,22.70
2016,08,14,14,35,22.60
2016,08,14,14,36,22.60
2016,08,14,14,37,22.60
2016,08,14,14,38,22.60
2016,08,14,14,39,22.70
2016,08,14,14,40,22.70
2016,08,14,14,41,22.70
2016,08,14,14,42,22.70
2016,08,14,14,43,22.70
2016,08,14,14,44,22.70
2016,08,14,14,45,22.80
2016,08,14,14,46,22.80
2016,08,14,14,47,22.80
2016,08,14,14,48,22.90
2016,08,14,14,49,22.90
2016,08,14,14,50,22.90
2016,08,14,14,51,22.90
2016,08,14,14,52,22.90
2016,08,14,14,53,22.90
2016,08,14,14,54,22.90
2016,08,14,14,55,22.90
2016,08,14,14,56,22.90
2016,08,14,14,57,22.80
2016,08,14,14,58,22.80
2016,08,14,14,59,22.80
2016,08,14,15,00,22.80
2016,08,14,15,01,22.80
2016,08,14,15,02,22.80
2016,08,14,15,03,22.70
2016,08,14,15,04,22.70
2016,08,14,15,05,22.70
2016,08,14,15,06,22.70
2016,08,14,15,07,22.70
2016,08,14,15,08,22.70
2016,08,14,15,09,22.70
2016,08,14,15,10,22.70
2016,08,14,15,11,22.80
2016,08,14,15,12,22.80
2016,08,14,15,13,22.90
2016,08,14,15,14,22.90
2016,08,14,15,15,22.90
2016,08,14,15,16,22.90
2016,08,14,15,17,22.90
2016,08,14,15,18,23.00
2016,08,14,15,19,23.00
2016,08,14,15,20,23.00
2016,08,14,15,21,23.00
2016,08,14,15,22,23.10
2016,08,14,15,23,23.10
2016,08,14,15,24,23.20
2016,08,14,15,25,23.20
2016,08,14,15,26,23.30
2016,08,14,15,27,23.30
2016,08,14,15,28,23.40
2016,08,14,15,29,23.40
2016,08,14,15,30,23.30
2016,08,14,15,31,23.30
2016,08,14,15,32,23.20
2016,08,14,15,33,23.20
2016,08,14,15,34,23.20
2016,08,14,15,35,23.20
2016,08,14,15,36,23.20
2016,08,14,15,37,23.20
2016,08,14,15,38,23.20
2016,08,14,15,39,23.30
2016,08,14,15,40,23.30
2016,08,14,15,41,23.30
2016,08,14,15,42,23.30
2016,08,14,15,43,23.30
2016,08,14,15,44,23.40
2016,08,14,15,45,23.50
2016,08,14,15,46,23.50
2016,08,14,15,47,23.60
2016,08,14,15,48,23.60
2016,08,14,15,49,23.70
2016,08,14,15,50,23.70
2016,08,14,15,51,23.80
2016,08,14,15,52,23.80
2016,08,14,15,53,23.80
2016,08,14,15,54,23.80
2016,08,14,15,55,23.80
2016,08,14,15,56,23.80
2016,08,14,15,57,23.80
2016,08,14,15,58,23.80
2016,08,14,15,59,23.80
2016,08,14,16,00,23.80
2016,08,14,16,01,23.80
2016,08,14,16,02,23.70
2016,08,14,16,03,23.70
2016,08,14,16,04,23.70
2016,08,14,16,05,23.70
2016,08,14,16,06,23.70
2016,08,14,16,07,23.80
2016,08,14,16,08,23.80
2016,08,14,16,09,23.90
2016,08,14,16,10,23.90
2016,08,14,16,11,24.00
2016,08,14,16,12,24.00
2016,08,14,16,13,24.10
2016,08,14,16,14,24.20
2016,08,14,16,15,24.20
2016,08,14,16,16,24.30
2016,08,14,16,17,24.40
2016,08,14,16,18,24.50
2016,08,14,16,19,24.60
2016,08,14,16,20,24.70
2016,08,14,16,21,24.80
2016,08,14,16,22,24.80
2016,08,14,16,23,24.80
2016,08,14,16,24,24.90
2016,08,14,16,25,24.90
2016,08,14,16,26,25.00
2016,08,14,16,27,25.10
2016,08,14,16,28,25.10
2016,08,14,16,29,25.20
2016,08,14,16,30,25.30
2016,08,14,16,31,25.30
2016,08,14,16,32,25.20
2016,08,14,16,33,25.20
2016,08,14,16,34,25.30
2016,08,14,16,35,25.30
2016,08,14,16,36,25.30
2016,08,14,16,37,25.40
2016,08,14,16,38,25.40
2016,08,14,16,39,25.40
2016,08,14,16,40,25.40
2016,08,14,16,41,25.40
2016,08,14,16,42,25.40
2016,08,14,16,43,25.40
2016,08,14,16,44,25.40
2016,08,14,16,45,25.40
2016,08,14,16,46,25.40
2016,08,14,16,47,25.40
2016,08,14,16,48,25.40
2016,08,14,16,49,25.40
2016,08,14,16,50,25.40
2016,08,14,16,51,25.30
2016,08,14,16,52,25.40
2016,08,14,16,53,25.40
2016,08,14,16,54,25.40
2016,08,14,16,55,25.30
2016,08,14,16,56,25.30
2016,08,14,16,57,25.30
2016,08,14,16,58,25.20
2016,08,14,16,59,25.20
2016,08,14,17,00,25.10
2016,08,14,17,01,25.10
2016,08,14,17,02,25.10
2016,08,14,17,03,25.10
2016,08,14,17,04,25.10
2016,08,14,17,05,25.10
2016,08,14,17,06,25.00
2016,08,14,17,07,25.00
2016,08,14,17,08,24.90
2016,08,14,17,09,24.90
2016,08,14,17,10,24.80
2016,08,14,17,11,24.80
2016,08,14,17,12,24.80
2016,08,14,17,13,24.70
2016,08,14,17,14,24.70
2016,08,14,17,15,24.70
2016,08,14,17,16,24.70
2016,08,14,17,17,24.60
2016,08,14,17,18,24.60
2016,08,14,17,19,24.50
2016,08,14,17,20,24.50
2016,08,14,17,21,24.40
2016,08,14,17,22,24.40